Hourly Weather Luky

Today, 7 May, Friday

Time Temperature Precipitation Wind Pressure Humidity
00:00 +5°C° 0 mm 3 mps 743 mmHg 67%
01:00 +6°C° 0 mm 2 mps 743 mmHg 70%
02:00 +5°C° 0 mm 2 mps 743 mmHg 72%
03:00 +5°C° 0 mm 2 mps 743 mmHg 74%
04:00 +5°C° 0 mm 2 mps 743 mmHg 77%
05:00 +4°C° 0 mm 3 mps 742 mmHg 79%
06:00 +7°C° 0 mm 3 mps 742 mmHg 75%
07:00 +7°C° 0 mm 4 mps 742 mmHg 72%
08:00 +10°C° 0 mm 4 mps 742 mmHg 68%
09:00 +12°C° 0 mm 5 mps 742 mmHg 63%
10:00 +13°C° 0 mm 5 mps 741 mmHg 57%
11:00 +14°C° 0 mm 5 mps 741 mmHg 51%
12:00 +14°C° 0.5 mm 5 mps 740 mmHg 61%
13:00 +13°C° 0.5 mm 5 mps 740 mmHg 70%
14:00 +12°C° 0.5 mm 5 mps 739 mmHg 80%
15:00 +13°C° 0.2 mm 4 mps 739 mmHg 77%
16:00 +14°C° 0.2 mm 4 mps 739 mmHg 74%
17:00 +15°C° 0.2 mm 4 mps 738 mmHg 71%
18:00 +13°C° 0.6 mm 4 mps 738 mmHg 78%
19:00 +12°C° 0.6 mm 3 mps 738 mmHg 86%
20:00 +12°C° 0.6 mm 2 mps 738 mmHg 93%
21:00 +10°C° 1.1 mm 2 mps 738 mmHg 94%
22:00 +10°C° 1.1 mm 2 mps 738 mmHg 94%
23:00 +10°C° 1.1 mm 3 mps 738 mmHg 95%

Tomorrow, 8 May, Saturday

Time Temperature Precipitation Wind Pressure Humidity
00:00 +10°C° 0.4 mm 3 mps 738 mmHg 94%
01:00 +8°C° 0.4 mm 4 mps 738 mmHg 94%
02:00 +8°C° 0.4 mm 5 mps 738 mmHg 93%
03:00 +7°C° 0.1 mm 6 mps 738 mmHg 92%
04:00 +7°C° 0.1 mm 6 mps 739 mmHg 91%
05:00 +5°C° 0.1 mm 7 mps 739 mmHg 90%
06:00 +5°C° 0 mm 8 mps 740 mmHg 87%
07:00 +5°C° 0 mm 8 mps 740 mmHg 84%
08:00 +5°C° 0 mm 8 mps 741 mmHg 81%
09:00 +5°C° 0 mm 9 mps 742 mmHg 76%
10:00 +5°C° 0 mm 9 mps 742 mmHg 71%
11:00 +5°C° 0 mm 9 mps 742 mmHg 66%
12:00 +3°C° 0 mm 9 mps 743 mmHg 73%
13:00 +4°C° 0 mm 8 mps 744 mmHg 80%
14:00 +2°C° 0 mm 8 mps 744 mmHg 86%
15:00 +4°C° 0.1 mm 8 mps 744 mmHg 80%
16:00 +5°C° 0.1 mm 7 mps 745 mmHg 74%
17:00 +8°C° 0.1 mm 6 mps 745 mmHg 69%
18:00 +7°C° 0 mm 6 mps 746 mmHg 71%
19:00 +5°C° 0 mm 6 mps 746 mmHg 73%
20:00 +5°C° 0 mm 5 mps 747 mmHg 76%
21:00 +3°C° 0 mm 5 mps 747 mmHg 79%
22:00 +3°C° 0 mm 4 mps 748 mmHg 83%
23:00 +1°C° 0 mm 4 mps 748 mmHg 86%

Day after tomorrow, 9 May, Sunday

Time Temperature Precipitation Wind Pressure Humidity
00:00 0°C° 0 mm 4 mps 749 mmHg 87%
01:00 +1°C° 0 mm 3 mps 749 mmHg 88%
02:00 +1°C° 0 mm 3 mps 749 mmHg 89%
03:00 +1°C° 0 mm 3 mps 750 mmHg 89%
04:00 +1°C° 0 mm 3 mps 750 mmHg 89%
05:00 0°C° 0 mm 3 mps 751 mmHg 89%
06:00 +3°C° 0 mm 3 mps 751 mmHg 83%
07:00 +5°C° 0 mm 4 mps 752 mmHg 77%
08:00 +7°C° 0 mm 4 mps 752 mmHg 71%
09:00 +8°C° 0 mm 4 mps 752 mmHg 65%
10:00 +10°C° 0 mm 4 mps 752 mmHg 59%
11:00 +12°C° 0 mm 3 mps 752 mmHg 53%
12:00 +13°C° 0 mm 3 mps 752 mmHg 49%
13:00 +13°C° 0 mm 3 mps 752 mmHg 45%
14:00 +14°C° 0 mm 3 mps 753 mmHg 42%
15:00 +14°C° 0 mm 3 mps 753 mmHg 42%
16:00 +15°C° 0 mm 2 mps 753 mmHg 43%
17:00 +15°C° 0 mm 2 mps 753 mmHg 43%
18:00 +13°C° 0 mm 2 mps 753 mmHg 49%
19:00 +10°C° 0 mm 2 mps 753 mmHg 54%
20:00 +10°C° 0 mm 1 mps 753 mmHg 59%
21:00 +8°C° 0 mm 2 mps 754 mmHg 60%
22:00 +8°C° 0 mm 2 mps 754 mmHg 61%
23:00 +7°C° 0 mm 2 mps 754 mmHg 62%

10 May, Monday

Time Temperature Precipitation Wind Pressure Humidity
00:00 +6°C° 0 mm 2 mps 754 mmHg 65%
01:00 +6°C° 0 mm 2 mps 754 mmHg 67%
02:00 +5°C° 0 mm 2 mps 754 mmHg 69%
03:00 +5°C° 0 mm 2 mps 755 mmHg 71%
04:00 +5°C° 0 mm 2 mps 755 mmHg 72%
05:00 +5°C° 0 mm 2 mps 755 mmHg 73%
06:00 +7°C° 0 mm 3 mps 755 mmHg 68%
07:00 +9°C° 0 mm 3 mps 755 mmHg 63%
08:00 +11°C° 0 mm 3 mps 755 mmHg 58%
09:00 +13°C° 0 mm 3 mps 755 mmHg 54%
10:00 +14°C° 0 mm 4 mps 755 mmHg 50%
11:00 +15°C° 0 mm 4 mps 755 mmHg 46%
12:00 +17°C° 0 mm 4 mps 755 mmHg 45%
13:00 +17°C° 0 mm 4 mps 755 mmHg 44%
14:00 +18°C° 0 mm 4 mps 754 mmHg 42%
15:00 +18°C° 0 mm 4 mps 754 mmHg 45%
16:00 +18°C° 0 mm 3 mps 754 mmHg 48%
17:00 +18°C° 0 mm 3 mps 754 mmHg 52%
18:00 +14°C° 0 mm 3 mps 754 mmHg 58%
19:00 +12°C° 0 mm 3 mps 754 mmHg 64%
20:00 +10°C° 0 mm 3 mps 754 mmHg 71%
21:00 +9°C° 0 mm 3 mps 754 mmHg 72%
22:00 +9°C° 0 mm 3 mps 754 mmHg 72%
23:00 +8°C° 0 mm 3 mps 755 mmHg 73%

11 May, Tuesday

Time Temperature Precipitation Wind Pressure Humidity
00:00 +7°C° 0 mm 3 mps 754 mmHg 74%
01:00 +7°C° 0 mm 3 mps 754 mmHg 76%
02:00 +5°C° 0 mm 3 mps 754 mmHg 77%
03:00 +5°C° 0 mm 3 mps 754 mmHg 78%
04:00 +5°C° 0 mm 3 mps 754 mmHg 79%
05:00 +6°C° 0 mm 2 mps 754 mmHg 80%
06:00 +8°C° 0 mm 3 mps 754 mmHg 74%
07:00 +10°C° 0 mm 3 mps 754 mmHg 69%
08:00 +12°C° 0 mm 4 mps 754 mmHg 63%
09:00 +14°C° 0 mm 4 mps 754 mmHg 57%
10:00 +15°C° 0 mm 4 mps 754 mmHg 51%
11:00 +16°C° 0 mm 5 mps 753 mmHg 45%
12:00 +17°C° 0 mm 5 mps 753 mmHg 43%
13:00 +18°C° 0 mm 4 mps 753 mmHg 41%
14:00 +19°C° 0 mm 4 mps 752 mmHg 39%
15:00 +19°C° 0 mm 4 mps 752 mmHg 43%
16:00 +19°C° 0 mm 4 mps 752 mmHg 47%
17:00 +19°C° 0 mm 4 mps 752 mmHg 50%
18:00 +15°C° 0 mm 4 mps 751 mmHg 57%
19:00 +13°C° 0 mm 4 mps 751 mmHg 64%
20:00 +11°C° 0 mm 3 mps 751 mmHg 71%
21:00 +10°C° 0 mm 3 mps 751 mmHg 74%
22:00 +10°C° 0 mm 3 mps 751 mmHg 78%
23:00 +9°C° 0 mm 3 mps 751 mmHg 81%

12 May, Wednesday

Time Temperature Precipitation Wind Pressure Humidity
00:00 +9°C° 0 mm 3 mps 750 mmHg 85%
01:00 +9°C° 0 mm 3 mps 750 mmHg 88%
02:00 +8°C° 0 mm 3 mps 750 mmHg 91%
03:00 +8°C° 0 mm 3 mps 750 mmHg 92%
04:00 +8°C° 0 mm 3 mps 750 mmHg 93%
05:00 +8°C° 0 mm 3 mps 750 mmHg 94%
06:00 +10°C° 0 mm 3 mps 749 mmHg 89%
07:00 +13°C° 0 mm 4 mps 749 mmHg 83%
08:00 +15°C° 0 mm 4 mps 749 mmHg 77%
09:00 +16°C° 0 mm 5 mps 749 mmHg 71%
10:00 +17°C° 0 mm 5 mps 749 mmHg 65%
11:00 +20°C° 0 mm 5 mps 748 mmHg 60%
12:00 +20°C° 0 mm 5 mps 748 mmHg 57%
13:00 +21°C° 0 mm 5 mps 747 mmHg 55%
14:00 +21°C° 0 mm 5 mps 747 mmHg 53%
15:00 +21°C° 0 mm 5 mps 747 mmHg 57%
16:00 +20°C° 0 mm 4 mps 746 mmHg 62%
17:00 +19°C° 0 mm 4 mps 746 mmHg 66%
18:00 +18°C° 0.1 mm 4 mps 746 mmHg 71%
19:00 +17°C° 0.1 mm 3 mps 745 mmHg 76%
20:00 +14°C° 0.1 mm 3 mps 745 mmHg 80%
21:00 +14°C° 0 mm 4 mps 745 mmHg 83%
22:00 +13°C° 0 mm 4 mps 745 mmHg 86%
23:00 +13°C° 0 mm 4 mps 745 mmHg 89%
Show more

We Need Your Consent

Meteoprog and our Service Providers may store and access personal data such as cookies, device identifiers or other similar technologies on your device and process such data to personalise content and ads, as well as provide social media features and to analyse the traffic.

  • Store and/or access information on your device

    Cookies, device identifiers or other information can be stored or accessed on your device for the purposes indicated above.

  • Personalised ads and content, ad and content measurement, audience insights, and products development

    Ads and content can be personalised based on a profile. More data can be added to better personalise ads and content. Ad and content performance can be measured. Insights about the audience who saw the ads and content can be derived. Such data can be used to develop or improve user’s experience, systems and software.

By clicking ‘I Agree’ you will allow the use of indicated cookies, device identifiers, web beacons or other similar technologies. Your settings can be changed in the browser on your device.

For certain purposes, legitimate interests may be relied on, rather than consent. You can read more about this in our Privacy and Cookie Policy.